Tracking 18630 objects as of 25-May-2017
HD Live streaming from Space Station
objects crossing your sky now

IABS R/B

Track IABS R/B now!


NORAD ID: 26054
Int'l Code: 2000-001C
Perigee: 35,444.8 km
Apogee: 35,639.1 km
Inclination: 13.0 °
Period: 1,423.3 minutes
Semi major axis: 41912 km
RCS: Unknown
Launch date: January 21, 2000
Source: United States (US)
Launch site: AIR FORCE EASTERN TEST RANGE (AFETR)

Note: This is a ROCKET BODY
Your satellite tracking list
Your tracking list is empty





NASA's NSSDC Master Catalog

Two Line Element Set (TLE):
1 26054U 00001C   17108.57934783 0.00000000  00000-0  00000-0 0    04
2 26054  12.9861  27.8011 0023187 262.7008  97.0476  1.01176746    07
Source of the keplerian elements: McCants